#timestamp,LO_Frequency,Hit,StdDev 
1512320415.6,286047000.0,N
1512320435.4,286047000.8,N
1512320455.2,286046994.3,N
1512320475.1,286046983.0,Y
1512320476.0,286046983.0,P
1512320495.8,286046978.3,N
1512320515.6,286046974.1,N
1512320535.5,286046967.6,Y
1512320555.3,286046983.5,P
1512320575.1,286046981.6,P
1512320595.9,286046975.9,P
1512320615.7,286046976.1,Y
1512320635.6,286046997.0,P
1512320655.4,286046996.5,N
1512320675.2,286046997.1,N
1512320695.0,286046996.7,N
1512320695.9,286046996.7,N
1512320715.8,286046996.4,N
1512320735.6,286046994.1,N
1512320755.4,286046995.3,N
1512320775.3,286046989.1,N
1512320795.1,286046994.1,N
1512320815.8,286046992.4,N
1512320835.7,286046984.0,Y
1512320855.5,286046989.5,P
1512320875.3,286046989.1,P
1512320895.2,286046992.2,P
1512320915.9,286046994.2,N
1512320935.7,286046995.6,N
1512320955.6,286046994.9,N
1512320975.4,286046994.3,N
1512320995.2,286046993.0,Y
1512321015.1,286047000.9,P
1512321016.0,286047000.9,N
1512321035.8,286046995.3,N
1512321055.6,286046995.4,N
1512321075.5,286046998.0,N
1512321095.3,286047000.8,N
1512321115.1,286047002.0,N
1512321135.9,286047001.6,N
1512321155.7,286046999.8,N
1512321175.5,286046999.1,N
1512321195.3,286046998.1,N
1512321215.2,286046996.6,N
1512321235.0,286046993.8,N
1512321235.9,286046993.8,N
1512321255.7,286046997.7,N
1512321275.6,286046995.1,N
1512321295.4,286046997.6,N
1512321315.2,286046995.2,N
1512321335.1,286046993.3,N
1512321336.0,286046993.3,N
1512321355.8,286046993.8,N
1512321375.6,286046990.4,Y
1512321395.5,286046997.3,P
1512321415.3,286046996.2,P
1512321435.1,286046991.9,P
1512321455.9,286046994.8,N
1512321475.7,286046988.0,Y
1512321495.5,286046989.9,P
1512321515.4,286046987.3,P
1512321535.2,286046987.3,P
1512321555.0,286046987.2,Y
1512321555.9,286046987.2,P
1512321575.8,286046993.7,P
1512321595.6,286046993.8,N
1512321615.4,286046991.7,Y
1512321635.3,286047004.2,P
1512321655.1,286047004.5,N
1512321675.8,286047006.2,N
1512321695.7,286047007.4,N
1512321715.5,286047012.2,N
1512321735.3,286047006.9,N
1512321755.2,286047003.9,N
1512321775.9,286047002.1,N
1512321795.7,286047002.8,N
1512321815.6,286047001.3,N
1512321835.4,286047004.6,N
1512321855.2,286047009.1,N
1512321875.0,286047007.1,N
1512321875.9,286047007.1,N
1512321895.8,286046999.7,N
1512321915.6,286047000.3,N
1512321935.4,286047000.8,N
1512321955.3,286046999.1,N
1512321975.1,286046999.5,N
1512321995.8,286046999.6,N
1512322015.7,286046997.9,N
1512322035.5,286046998.7,N
1512322055.3,286047001.1,N
1512322075.2,286047002.3,N
1512322095.9,286046999.1,N
1512322115.7,286047003.4,N
1512322135.6,286047002.6,N
1512322155.4,286047002.6,N
1512322175.2,286047001.5,N
1512322195.0,286047005.8,N
1512322196.0,286047005.8,N
1512322215.8,286047004.0,N
1512322235.6,286047004.4,N
1512322255.4,286046999.6,N
1512322275.3,286046999.2,N
1512322295.1,286047000.9,N
1512322315.8,286047000.0,N
1512322335.7,286047000.9,N
1512322355.5,286046997.5,N
1512322375.3,286046997.2,N
1512322395.2,286046996.9,N
1512322415.9,286046996.5,N
1512322435.7,286046999.8,N
1512322455.6,286046999.9,N
1512322475.4,286047002.2,N
1512322495.2,286046998.7,N
1512322515.0,286047001.1,N
1512322516.0,286047001.1,N
1512322535.8,286047000.4,N
1512322555.6,286046997.7,N
1512322575.4,286046995.7,N
1512322595.3,286046995.9,N
1512322615.1,286046996.6,N
1512322635.8,286047004.0,N
1512322655.7,286047001.6,N
1512322675.5,286047003.9,N
1512322695.3,286047002.0,N
1512322715.2,286047005.7,N
1512322735.9,286047010.6,Y
1512322755.7,286047007.0,P
1512322775.6,286047002.1,N
1512322795.4,286047002.3,N
1512322815.2,286047000.3,N
1512322835.1,286047001.3,N
1512322836.0,286047001.3,N
1512322855.8,286047002.2,N
1512322875.6,286047006.3,Y
1512322895.5,286047003.2,P
1512322915.3,286046999.7,N
1512322935.1,286047004.0,N
1512322955.9,286047008.6,Y
1512322975.7,286047008.3,P
1512322995.5,286047009.8,P
1512323015.3,286047008.4,N
1512323035.2,286047006.4,N
1512323055.0,286047005.6,N
1512323055.9,286047005.6,N
1512323075.7,286047001.7,N
1512323095.6,286046999.4,N
1512323115.4,286047001.2,N
1512323135.2,286047002.3,N
1512323155.1,286047001.7,N
1512323156.0,286047001.7,N
1512323175.8,286047002.9,N
1512323195.6,286047007.2,N
1512323215.5,286047001.4,N
1512323235.3,286047000.5,N
1512323255.1,286046998.7,N
1512323275.9,286046999.9,N
1512323295.7,286047000.4,N
1512323315.5,286046998.9,N
1512323335.3,286046998.0,N
1512323355.2,286046993.1,N
1512323375.0,286046994.3,N
1512323375.9,286046994.3,N
1512323395.7,286046993.9,N
1512323415.6,286046991.7,N
1512323435.4,286046992.0,N
1512323455.2,286046994.4,N
1512323475.1,286046988.5,N
1512323476.0,286046988.5,N
1512323495.8,286046988.4,N
1512323515.6,286046986.4,N
1512323535.5,286046987.2,N
1512323555.3,286046987.8,N
1512323575.1,286046988.5,N
1512323595.9,286046991.1,N
1512323615.7,286046988.1,N
1512323635.5,286046987.9,N
1512323655.3,286046990.0,N
1512323675.2,286046987.2,N
1512323695.0,286046986.1,N
1512323695.9,286046986.1,N
1512323715.7,286046988.5,N
1512323735.6,286046994.8,N
1512323755.4,286046993.8,N
1512323775.2,286046998.5,N
1512323795.1,286046999.8,N
1512323796.0,286046999.8,N
1512323815.8,286047000.5,N
1512323835.6,286047001.7,N
1512323855.5,286047004.2,N
1512323875.3,286047005.0,N
1512323895.1,286047008.1,N
1512323915.9,286047010.1,N
1512323935.7,286047012.9,N
1512323955.5,286047018.3,N
1512323975.4,286047020.0,N
1512323995.2,286047021.6,N
